Location: Alfords
(31.4624°N, 83.9238°W)
Time: 17:22:31
(UTC+00:00)

N. Korean satellite - Pass Details

Date: 17 September 2021
Orbit: 450 x 495 km, 97.3° (Epoch: 15 October)

Event Time Altitude Azimuth Distance (km) Brightness Sun altitude
Rises 10:26:54 0° 19° (NNE) 2,500 10.6 -12.3°
Reaches altitude 10° 10:29:00 10° 26° (NNE) 1,628 9.7 -11.9°
Maximum altitude 10:32:21 43° 99° (E) 671 7.8 -11.2°
Drops below altitude 10° 10:35:44 10° 172° (S) 1,644 9.2 -10.5°
Sets 10:37:52 0° 179° (S) 2,527 10.1 -10.0°
